VJC394 VVTS-VVPK

Flight info

Callsign VJC394
Flight time 0h 55m
Altitude 29000
Route PATMA5N PATMA PATMA1D
Aircraft A21N/M-SDE3FGHIRWY/LB1

Departure

Time 2026-04-22 15:21
Airport Tan Son Nhat International Airport (VVTS)

Arrival

Time 2026-04-22 16:17
Airport Pleiku Airport (VVPK)
Time Latitude Longitude Altitude Speed Heading
2026-04-22 14:58 10.81419 106.65385 41 ft 0 kts 339°
2026-04-22 15:13 10.81420 106.65385 41 ft 0 kts 339°
2026-04-22 15:13 10.81429 106.65381 41 ft 2 kts 339°
2026-04-22 15:13 10.81449 106.65374 41 ft 3 kts 341°
2026-04-22 15:14 10.81467 106.65371 41 ft 0 kts 11°
2026-04-22 15:14 10.81470 106.65372 41 ft 1 kts 22°
2026-04-22 15:14 10.81492 106.65396 41 ft 7 kts 59°
2026-04-22 15:14 10.81517 106.65460 41 ft 10 kts 69°
2026-04-22 15:15 10.81543 106.65530 41 ft 11 kts 69°
2026-04-22 15:15 10.81571 106.65604 41 ft 11 kts 69°
2026-04-22 15:15 10.81600 106.65681 41 ft 12 kts 70°
2026-04-22 15:15 10.81630 106.65760 41 ft 12 kts 69°
2026-04-22 15:16 10.81660 106.65842 41 ft 12 kts 70°
2026-04-22 15:16 10.81692 106.65925 41 ft 13 kts 68°
2026-04-22 15:16 10.81725 106.66010 41 ft 13 kts 69°
2026-04-22 15:16 10.81757 106.66097 41 ft 13 kts 69°
2026-04-22 15:17 10.81790 106.66184 41 ft 13 kts 69°
2026-04-22 15:17 10.81824 106.66274 41 ft 13 kts 69°
2026-04-22 15:17 10.81854 106.66355 41 ft 11 kts 70°
2026-04-22 15:17 10.81883 106.66431 41 ft 12 kts 69°
2026-04-22 15:18 10.81914 106.66510 41 ft 12 kts 69°
2026-04-22 15:18 10.81944 106.66592 41 ft 12 kts 69°
2026-04-22 15:18 10.81975 106.66673 41 ft 13 kts 69°
2026-04-22 15:18 10.82008 106.66762 41 ft 13 kts 69°
2026-04-22 15:19 10.82042 106.66849 41 ft 13 kts 63°
2026-04-22 15:19 10.82102 106.66920 41 ft 13 kts 40°
2026-04-22 15:19 10.82172 106.66979 41 ft 13 kts 39°
2026-04-22 15:19 10.82256 106.67007 41 ft 13 kts 347°
2026-04-22 15:20 10.82328 106.66968 41 ft 10 kts 322°
2026-04-22 15:20 10.82357 106.66914 41 ft 4 kts 251°
2026-04-22 15:20 10.82344 106.66878 41 ft 5 kts 250°
2026-04-22 15:20 10.82279 106.66702 41 ft 61 kts 247°
2026-04-22 15:21 10.82035 106.66096 42 ft 124 kts 251°
2026-04-22 15:21 10.81666 106.65080 43 ft 176 kts 247°
2026-04-22 15:21 10.81269 106.63916 604 ft 175 kts 249°
2026-04-22 15:21 10.80928 106.62729 1259 ft 175 kts 250°
2026-04-22 15:22 10.80621 106.61528 1847 ft 178 kts 252°
2026-04-22 15:22 10.80338 106.60271 2523 ft 189 kts 254°
2026-04-22 15:22 10.80242 106.58875 3183 ft 208 kts 282°
2026-04-22 15:22 10.81067 106.57641 3724 ft 220 kts 326°
2026-04-22 15:23 10.82549 106.57233 4037 ft 230 kts
2026-04-22 15:23 10.84014 106.57913 4311 ft 243 kts 45°
2026-04-22 15:23 10.85160 106.59193 5099 ft 237 kts 43°
2026-04-22 15:23 10.86563 106.60006 5789 ft 234 kts 14°
2026-04-22 15:24 10.88184 106.60201 6466 ft 233 kts 360°
2026-04-22 15:24 10.89622 106.60108 6999 ft 236 kts 354°
2026-04-22 15:24 10.91026 106.59907 7467 ft 239 kts 352°
2026-04-22 15:25 10.94620 106.59209 8653 ft 247 kts 351°
2026-04-22 15:25 10.96631 106.58789 9278 ft 251 kts 352°
2026-04-22 15:25 10.98381 106.58733 9769 ft 250 kts 15°
2026-04-22 15:25 10.99961 106.59425 10263 ft 249 kts 38°
2026-04-22 15:26 11.01172 106.60700 10776 ft 250 kts 52°
2026-04-22 15:26 11.02224 106.62101 11274 ft 253 kts 53°
2026-04-22 15:26 11.03302 106.63541 11746 ft 256 kts 53°
2026-04-22 15:26 11.04401 106.64997 12230 ft 259 kts 53°
2026-04-22 15:27 11.05519 106.66470 12687 ft 262 kts 52°
2026-04-22 15:27 11.06635 106.67932 13152 ft 264 kts 52°
2026-04-22 15:27 11.07777 106.69427 13619 ft 266 kts 52°
2026-04-22 15:27 11.08932 106.70933 14062 ft 269 kts 52°
2026-04-22 15:28 11.10086 106.72439 14499 ft 271 kts 52°
2026-04-22 15:28 11.11276 106.73955 14913 ft 274 kts 47°
2026-04-22 15:28 11.12675 106.75275 15359 ft 277 kts 40°
2026-04-22 15:28 11.14187 106.76532 15787 ft 279 kts 39°
2026-04-22 15:29 11.15732 106.77809 16189 ft 282 kts 40°
2026-04-22 15:29 11.17252 106.79087 16573 ft 286 kts 40°
2026-04-22 15:29 11.18785 106.80394 16958 ft 288 kts 40°
2026-04-22 15:30 11.21392 106.82640 17599 ft 292 kts 40°
2026-04-22 15:30 11.23465 106.84436 18120 ft 294 kts 41°
2026-04-22 15:30 11.25034 106.85799 18527 ft 295 kts 41°
2026-04-22 15:30 11.26593 106.87157 18929 ft 296 kts 41°
2026-04-22 15:31 11.28170 106.88530 19308 ft 297 kts 41°
2026-04-22 15:31 11.29764 106.89920 19689 ft 298 kts 41°
2026-04-22 15:31 11.30842 106.90861 19942 ft 299 kts 41°
2026-04-22 15:31 11.31648 106.91563 20126 ft 300 kts 41°
2026-04-22 15:32 11.32328 106.92157 20281 ft 300 kts 41°
2026-04-22 15:32 11.33159 106.92882 20464 ft 301 kts 41°
2026-04-22 15:32 11.35193 106.94656 20904 ft 304 kts 42°
2026-04-22 15:33 11.35923 106.95293 21062 ft 304 kts 42°
2026-04-22 15:33 11.37545 106.96709 21415 ft 305 kts 42°
2026-04-22 15:33 11.39163 106.98121 21763 ft 307 kts 42°
2026-04-22 15:33 11.40726 106.99487 22080 ft 308 kts 42°
2026-04-22 15:34 11.42356 107.00910 22410 ft 310 kts 42°
2026-04-22 15:34 11.44023 107.02366 22750 ft 311 kts 42°
2026-04-22 15:34 11.45678 107.03812 23093 ft 312 kts 42°
2026-04-22 15:34 11.47330 107.05257 23420 ft 314 kts 42°
2026-04-22 15:35 11.48985 107.06705 23748 ft 315 kts 42°
2026-04-22 15:35 11.50676 107.08184 24074 ft 317 kts 42°
2026-04-22 15:35 11.52368 107.09663 24402 ft 319 kts 42°
2026-04-22 15:35 11.54055 107.11139 24733 ft 320 kts 42°
2026-04-22 15:36 11.55756 107.12627 24936 ft 325 kts 42°
2026-04-22 15:36 11.57506 107.14158 25333 ft 326 kts 42°
2026-04-22 15:36 11.59237 107.15672 25801 ft 326 kts 42°
2026-04-22 15:36 11.60952 107.17172 26233 ft 327 kts 42°
2026-04-22 15:37 11.62710 107.18710 26632 ft 329 kts 42°
2026-04-22 15:37 11.64452 107.20235 27010 ft 331 kts 42°
2026-04-22 15:37 11.66227 107.21788 27372 ft 333 kts 42°
2026-04-22 15:37 11.67994 107.23336 27739 ft 335 kts 42°
2026-04-22 15:38 11.69761 107.24884 28087 ft 336 kts 42°
2026-04-22 15:38 11.73361 107.28037 28637 ft 340 kts 42°
2026-04-22 15:38 11.75166 107.29618 28886 ft 342 kts 42°
2026-04-22 15:39 11.78811 107.32812 28926 ft 342 kts 42°
2026-04-22 15:39 11.82422 107.35976 28936 ft 342 kts 42°
2026-04-22 15:40 11.86052 107.39161 28942 ft 341 kts 42°
2026-04-22 15:40 11.89671 107.42336 28955 ft 341 kts 42°
2026-04-22 15:41 11.93291 107.45514 28972 ft 342 kts 42°
2026-04-22 15:41 11.96826 107.48618 28982 ft 342 kts 42°
2026-04-22 15:42 12.00441 107.51793 28991 ft 342 kts 42°
2026-04-22 15:42 12.04070 107.54982 29004 ft 342 kts 42°
2026-04-22 15:43 12.07691 107.58165 29002 ft 341 kts 42°
2026-04-22 15:43 12.11322 107.61357 29016 ft 341 kts 42°
2026-04-22 15:44 12.14938 107.64539 29041 ft 341 kts 42°
2026-04-22 15:44 12.18527 107.67699 29055 ft 341 kts 42°
2026-04-22 15:45 12.22143 107.70881 29076 ft 341 kts 42°
2026-04-22 15:45 12.25778 107.74081 29102 ft 341 kts 42°
2026-04-22 15:46 12.29373 107.77247 29106 ft 341 kts 42°
2026-04-22 15:46 12.33150 107.79993 29072 ft 344 kts 26°
2026-04-22 15:47 12.35434 107.80800 29051 ft 345 kts 15°
2026-04-22 15:47 12.37838 107.81130 28842 ft 348 kts
2026-04-22 15:47 12.40268 107.81199 28542 ft 347 kts
2026-04-22 15:47 12.42688 107.81233 28244 ft 345 kts
2026-04-22 15:48 12.45105 107.81265 27944 ft 343 kts
2026-04-22 15:48 12.47491 107.81301 27645 ft 341 kts
2026-04-22 15:48 12.49881 107.81342 27347 ft 340 kts
2026-04-22 15:48 12.52275 107.81385 27047 ft 338 kts
2026-04-22 15:49 12.54618 107.81429 26751 ft 337 kts
2026-04-22 15:49 12.56970 107.81473 26454 ft 334 kts
2026-04-22 15:49 12.59273 107.81518 26162 ft 332 kts
2026-04-22 15:49 12.61594 107.81562 25865 ft 331 kts
2026-04-22 15:50 12.63920 107.81609 25567 ft 330 kts
2026-04-22 15:50 12.66213 107.81654 25273 ft 328 kts
2026-04-22 15:50 12.68488 107.81698 24980 ft 327 kts
2026-04-22 15:50 12.70783 107.81742 24683 ft 325 kts
2026-04-22 15:51 12.73054 107.81787 24389 ft 323 kts
2026-04-22 15:51 12.75312 107.81831 24092 ft 322 kts
2026-04-22 15:51 12.77543 107.81875 23799 ft 320 kts
2026-04-22 15:51 12.79796 107.81919 23505 ft 319 kts
2026-04-22 15:52 12.82002 107.81963 23214 ft 317 kts
2026-04-22 15:52 12.84219 107.82006 22921 ft 316 kts
2026-04-22 15:52 12.86443 107.82051 22626 ft 315 kts
2026-04-22 15:52 12.88602 107.82093 22339 ft 313 kts
2026-04-22 15:53 12.90759 107.82137 22053 ft 312 kts
2026-04-22 15:53 12.92966 107.82181 21762 ft 310 kts
2026-04-22 15:53 12.95123 107.82224 21472 ft 308 kts
2026-04-22 15:53 12.97269 107.82266 21185 ft 307 kts
2026-04-22 15:54 12.99432 107.82309 20895 ft 305 kts
2026-04-22 15:54 13.01544 107.82350 20610 ft 303 kts
2026-04-22 15:54 13.03657 107.82393 20319 ft 301 kts
2026-04-22 15:54 13.05727 107.82433 20034 ft 299 kts
2026-04-22 15:55 13.07815 107.82475 19747 ft 297 kts
2026-04-22 15:55 13.09836 107.82516 19467 ft 295 kts
2026-04-22 15:55 13.11880 107.82556 19184 ft 293 kts
2026-04-22 15:55 13.13931 107.82597 18897 ft 291 kts
2026-04-22 15:56 13.15958 107.82637 18613 ft 290 kts
2026-04-22 15:56 13.17979 107.82677 18328 ft 288 kts
2026-04-22 15:56 13.20010 107.82718 18043 ft 287 kts
2026-04-22 15:56 13.22015 107.82758 17758 ft 285 kts
2026-04-22 15:57 13.24008 107.82797 17474 ft 283 kts
2026-04-22 15:57 13.25965 107.82835 17194 ft 282 kts
2026-04-22 15:57 13.27947 107.82874 16914 ft 281 kts
2026-04-22 15:57 13.29905 107.82913 16636 ft 280 kts
2026-04-22 15:58 13.31843 107.82951 16360 ft 278 kts
2026-04-22 15:58 13.33801 107.82991 16080 ft 276 kts
2026-04-22 15:58 13.35716 107.83032 15803 ft 275 kts
2026-04-22 15:58 13.37639 107.83073 15525 ft 273 kts
2026-04-22 15:59 13.39546 107.83115 15248 ft 272 kts
2026-04-22 15:59 13.41445 107.83156 14970 ft 271 kts
2026-04-22 15:59 13.43339 107.83196 14690 ft 270 kts
2026-04-22 15:59 13.45220 107.83236 14410 ft 268 kts
2026-04-22 16:00 13.47085 107.83276 14131 ft 267 kts
2026-04-22 16:00 13.48948 107.83316 13828 ft 265 kts
2026-04-22 16:00 13.50798 107.83356 13480 ft 264 kts
2026-04-22 16:00 13.52638 107.83395 13147 ft 262 kts
2026-04-22 16:01 13.54449 107.83433 12828 ft 261 kts
2026-04-22 16:01 13.56277 107.83472 12499 ft 260 kts
2026-04-22 16:01 13.58090 107.83511 12169 ft 258 kts
2026-04-22 16:01 13.59879 107.83549 11842 ft 257 kts
2026-04-22 16:02 13.61694 107.83588 11518 ft 256 kts
2026-04-22 16:02 13.63474 107.83624 11197 ft 255 kts
2026-04-22 16:02 13.65247 107.83661 10879 ft 253 kts
2026-04-22 16:02 13.67035 107.83698 10551 ft 252 kts
2026-04-22 16:03 13.68795 107.83734 10235 ft 251 kts
2026-04-22 16:03 13.70551 107.83771 9925 ft 249 kts
2026-04-22 16:03 13.72285 107.83807 9608 ft 248 kts
2026-04-22 16:03 13.74020 107.83844 9293 ft 247 kts
2026-04-22 16:04 13.75740 107.83880 8969 ft 246 kts
2026-04-22 16:04 13.77451 107.83921 8647 ft 245 kts
2026-04-22 16:04 13.79132 107.84274 8307 ft 246 kts 21°
2026-04-22 16:04 13.80638 107.85119 7979 ft 246 kts 37°
2026-04-22 16:05 13.81842 107.86346 7650 ft 246 kts 53°
2026-04-22 16:05 13.82677 107.87896 7315 ft 247 kts 70°
2026-04-22 16:05 13.83096 107.89619 6982 ft 247 kts 79°
2026-04-22 16:05 13.83374 107.91350 6664 ft 246 kts 81°
2026-04-22 16:06 13.83642 107.93089 6351 ft 246 kts 81°
2026-04-22 16:06 13.83919 107.94837 6046 ft 245 kts 80°
2026-04-22 16:06 13.84200 107.96565 5749 ft 244 kts 80°
2026-04-22 16:06 13.84481 107.98263 5551 ft 240 kts 80°
2026-04-22 16:07 13.84769 107.99976 5543 ft 242 kts 80°
2026-04-22 16:07 13.85055 108.01679 5541 ft 243 kts 80°
2026-04-22 16:07 13.85346 108.03400 5541 ft 242 kts 79°
2026-04-22 16:07 13.85634 108.05112 5538 ft 239 kts 79°
2026-04-22 16:08 13.85910 108.06745 5539 ft 225 kts 80°
2026-04-22 16:08 13.86166 108.08266 5590 ft 204 kts 80°
2026-04-22 16:08 13.86399 108.09650 5526 ft 186 kts 79°
2026-04-22 16:08 13.86609 108.10911 5484 ft 168 kts 80°
2026-04-22 16:09 13.86805 108.12091 5507 ft 166 kts 80°
2026-04-22 16:09 13.87002 108.13271 5519 ft 167 kts 80°
2026-04-22 16:09 13.87196 108.14437 5525 ft 167 kts 80°
2026-04-22 16:09 13.87392 108.15614 5524 ft 167 kts 80°
2026-04-22 16:10 13.87589 108.16799 5528 ft 167 kts 79°
2026-04-22 16:10 13.87787 108.17987 5525 ft 167 kts 79°
2026-04-22 16:10 13.87992 108.19171 5518 ft 167 kts 75°
2026-04-22 16:10 13.88449 108.20248 5519 ft 165 kts 54°
2026-04-22 16:11 13.89261 108.21102 5527 ft 164 kts 33°
2026-04-22 16:11 13.90284 108.21600 5524 ft 163 kts 13°
2026-04-22 16:11 13.91450 108.21738 5535 ft 162 kts 360°
2026-04-22 16:11 13.97117 108.21780 5534 ft 162 kts 359°
2026-04-22 16:12 13.98253 108.21775 5538 ft 162 kts 353°
2026-04-22 16:12 13.99304 108.21375 5533 ft 160 kts 321°
2026-04-22 16:12 14.00010 108.20478 5541 ft 160 kts 292°
2026-04-22 16:12 14.00227 108.19375 5555 ft 159 kts 272°
2026-04-22 16:13 14.00233 108.18227 5591 ft 159 kts 270°
2026-04-22 16:13 14.00216 108.17100 5567 ft 153 kts 270°
2026-04-22 16:13 14.00212 108.16021 5540 ft 150 kts 270°
2026-04-22 16:13 14.00220 108.14943 5437 ft 150 kts 271°
2026-04-22 16:14 14.00239 108.13866 5184 ft 149 kts 271°
2026-04-22 16:14 14.00245 108.12811 4896 ft 148 kts 271°
2026-04-22 16:14 14.00262 108.11739 4554 ft 148 kts 271°
2026-04-22 16:14 14.00272 108.10688 4116 ft 149 kts 270°
2026-04-22 16:15 14.00293 108.09631 3691 ft 147 kts 273°
2026-04-22 16:15 14.00313 108.08592 3363 ft 144 kts 271°
2026-04-22 16:15 14.00336 108.07561 3238 ft 145 kts 271°
2026-04-22 16:15 14.00364 108.06509 3125 ft 146 kts 273°
2026-04-22 16:16 14.00395 108.05469 2943 ft 145 kts 271°
2026-04-22 16:16 14.00406 108.04435 2802 ft 145 kts 271°
2026-04-22 16:16 14.00415 108.03391 2626 ft 146 kts 271°
2026-04-22 16:16 14.00432 108.02352 2458 ft 143 kts 272°
2026-04-22 16:17 14.00445 108.01769 2452 ft 28 kts 278°
2026-04-22 16:17 14.00446 108.01595 2453 ft 23 kts 271°
2026-04-22 16:17 14.00448 108.01429 2453 ft 22 kts 270°
2026-04-22 16:17 14.00451 108.01250 2453 ft 29 kts 271°
2026-04-22 16:18 14.00455 108.01034 2453 ft 28 kts 271°
2026-04-22 16:18 14.00486 108.00891 2453 ft 16 kts 328°
2026-04-22 16:18 14.00538 108.00824 2453 ft 12 kts 278°
2026-04-22 16:18 14.00541 108.00735 2453 ft 11 kts 271°
2026-04-22 16:19 14.00571 108.00697 2453 ft 7 kts 359°
2026-04-22 16:19 14.00590 108.00698 2453 ft 0 kts